EHI
0 0 0 0 0 0 0 0 0 0 0 0 0 0 0 0 0 0 0 0 0 0 0 0 0 0 0 0 0 0 0 0 0 0 0 0 0 0
0 0 0 0 0 0 0 0 0 0 0 0 0 0 0 0 0 0 0 0 0 0 0 0 0 0 0 0 0 0 0 0 0 0 0 0 0 0
0 0 0 0 0 0 0 0 0 0 0 0 0 0 0 0 0 0 0 0 0 0 0 0 0 0 0 0 0 0 0 0 0 0 0 0 0 0
0 0 0 0 0 0 0 0 0 0 0 0 0 0 0 0 0 0 0 0 0 0 0 0 0 0 0 0 0 0 0 0 0 0 0 0 0 0
0 0 0 0 0 0 0 0 0 0 0 0 0 0 0 0 0 0 0 0 0 0 0 0 0 0 0 0 0 0 0 0 0 0 0 0 0 0
0 0 0 0 0 0 0 0 0 0 0 0 0 0 0 0 0 0 0 0 0 0 0 0 0 0 0 0 0 0 0 0 0 0 0 0 0 0
0 0 0 0 0 0 0 0 0 0 0 0 0 0 0 0 0 0 0 0 0 0 0 0 0 0 0 0 0 0 0 0 0 0 0 0 0 0
0 0 0 0 0 0 0 0 0 0 0 0 0 0 0 0 0 0 0 0 0 0 0 0 0 0 0 0 0 0 0 0 0 0 0 0 0 0
0 0 0 0 0 0 0 0 0 0 0 0 0 0 0 0 0 0 0 0 0 0 0 0 0 0 0 0 0 0 0 0 0 0 0 0 0 0
0 0 0 0 0 0 0 0 0 0 0 0 0 0 0 0 0 0 0 0 0 0 0 0 0 0 0 0 0 0 0 0 0 0 0 0 0 0
0 0 0 0 0 0 0 0 0 0 0 0 0 0 0 0 0 0 0 0 0 0 0 0 0 0 0 0 0 0 0 0 0 0 0 0 0 0
0 0 0 0 0 0 0 0 0 0 0 0 0 0 0 0 0 0 0 0 0 0 0 0 0 0 0 0 0 0 0 0 0 0 0 0 0 0
0 0 0 0 0 0 0 0 0 0 0 0 0 0 0 0 0 0 0 0 0 0 0 0 0 0 0 0 0 0 0 0 0 0 0 0 0 0
0 0 0 0 0 0 0 0 0 0 0 0 0 0 0 0 0 0 0 0 0 0 0 0 0 0 0 0 0 0 0 0 0 0 0 0 0 0
0 0 0 0 0 0 0 0 0 0 0 0 0 0 0 0 0 0 0 0 0 0 0 0 0 0 0 0 0 0 0 0 0 0 0 0 0 0
0 0 0 0 0 0 0 0 0 0 0 0 0 0 0 0 0 0 0 0 0 0 0 0 0 0 0 0 0 0 0 0 0 0 0 0 0 0
0 0 0 0 0 0 0 0 0 0 0 0 0 0 0 0 0 0 0 0 0 0 0 0 0 0 0 0 0 0 0 0 0 0 0 0 0 0
0 0 0 0 0 0 0 0 0 0 0 0 0 0 0 0 0 0 0 0 0 0 0 0 0 0 0 0 0 0 0 0 0 0 0 0 0 0
0 0 0 0 0 0 0 0 0 0 0 0 0 0 0 0 0 0 0 0 0 0 0 0 0 0 0 0 0 0 0 0 0 0 0 0 0 0
0 0 0 0 0 0 0 0 0 0 0 0 0 0 0 0 0 0 0 0 0 0 0 0 0 0 0 0 0 0 0 0 0 0 0 0 0 0
0 0 0 0 0 0 0 0 0 0 0 0 0 0 0 0 0 0 0 0 0 0 0 0 0 0 0 0 0 0 0 0 0 0 0 0 0 0
0 0 0 0 0 0 0 0 0 0 0 0 0 0 0 0 0 0 0 0 0 0 0 0 0 0 0 0 0 0 0 0 0 0 0 0 0 0
0 0 0 0 0 0 0 0 0 0 0 0 0 0 0 0 0 0 0 0 0 0 0 0 0 0 0 0 0 0 0 0 0 0 0 0 0 0
Wind_Speed
1 1 1 1 2 1 1 2 3 4 3 1 1 4 4 4 7 5 6 9 9 8 7 6 5 1 3 4 5 6 7 7 6 7 6 6 8 9
2 2 2 2 2 2 1 1 1 2 2 1 2 3 4 4 6 5 6 9 10 9 8 7 6 5 5 3 5 6 5 6 6 7 7 8 8 9
4 4 4 4 3 3 2 2 1 1 2 1 1 3 4 4 4 5 5 5 6 11 10 9 7 6 4 4 4 4 5 6 6 7 7 8 8 9
5 5 5 4 5 4 3 3 2 2 0 1 1 2 3 4 4 4 4 4 5 9 10 9 9 7 4 3 2 3 4 4 5 6 7 8 9 9
6 6 5 5 5 4 4 3 3 2 2 2 2 1 2 3 3 3 4 3 4 6 7 7 7 7 5 3 1 1 2 4 5 6 7 8 9 10
6 6 6 6 5 5 4 4 3 3 3 2 2 1 1 2 2 2 2 2 3 3 4 4 5 4 4 4 3 2 3 4 6 7 8 9 10 11
6 6 7 8 8 6 4 4 3 2 2 2 1 1 1 1 2 2 2 2 1 3 3 2 2 2 2 2 3 4 5 7 8 9 11 12 12 13
5 5 5 7 8 9 9 9 7 4 2 1 0 0 1 1 2 2 3 3 2 2 4 3 3 3 2 2 3 5 7 8 9 10 11 12 13 13
4 3 3 4 5 4 6 6 7 8 5 2 1 1 1 2 2 2 2 3 3 4 4 3 2 3 2 2 5 7 8 8 9 10 11 12 12 13
3 3 3 3 3 3 3 3 3 4 4 3 2 2 2 2 2 2 3 4 4 2 2 3 3 4 4 3 2 5 6 6 8 9 10 11 11 12
2 1 1 1 2 1 1 1 1 2 3 3 4 3 3 3 4 3 3 3 3 1 1 3 3 5 5 3 0 2 4 5 7 8 9 10 11 12
1 1 1 2 0 1 1 2 2 1 1 1 1 1 1 0 2 3 2 3 3 2 1 2 3 4 4 2 2 3 4 6 8 9 10 11 12 9
2 2 1 1 2 2 3 3 2 3 3 3 2 2 2 1 1 1 1 2 3 3 1 2 3 3 3 5 4 4 4 4 5 6 9 11 12 11
3 2 2 3 3 3 3 3 2 3 3 3 3 3 2 2 1 2 3 3 4 6 5 4 3 4 4 5 5 5 5 5 6 6 6 8 10 13
3 4 4 4 4 3 4 4 4 3 3 4 4 3 2 2 3 3 4 4 6 7 6 7 7 5 5 6 6 6 6 6 6 6 6 6 6 7
4 5 6 5 5 5 4 4 4 4 4 4 4 3 3 3 4 3 4 4 5 5 5 6 7 7 7 9 9 9 8 7 5 6 7 8 8 8
4 4 4 4 5 4 4 4 4 4 5 4 4 4 4 4 4 3 4 4 5 5 4 4 6 7 9 9 8 10 10 9 9 8 7 9 8 9
7 5 5 5 5 5 5 5 5 5 5 4 5 5 5 4 5 4 5 5 6 6 6 5 4 5 6 9 13 12 9 9 8 8 8 9 10 9
8 7 6 6 5 5 5 5 5 5 4 5 5 5 5 5 5 5 5 6 7 7 6 5 5 5 7 8 6 12 10 8 8 8 8 9 11 10
8 7 7 6 6 6 6 6 5 5 5 6 6 6 6 6 6 6 6 7 7 7 7 7 7 7 8 8 7 6 11 11 9 10 9 10 11 14
8 8 7 7 6 6 6 6 6 6 6 6 6 6 6 6 7 7 7 10 9 8 9 8 7 9 7 7 9 10 9 13 15 11 10 10 11 11
8 8 7 7 7 6 6 6 6 6 7 7 7 6 6 7 8 9 8 8 8 8 10 8 7 6 7 9 12 13 13 11 12 19 22 19 10 8
8 8 7 7 7 6 6 7 8 7 7 7 6 6 7 7 7 8 8 8 8 9 9 9 8 8 9 10 12 12 15 14 11 11 12 17 24 29
Wind_Direction
346 354 17 16 15 360 318 264 256 255 235 179 91 35 12 13 11 357 358 10 359 350 344 344 346 48 146 152 162 160 159 165 180 192 201 214 233 247
43 64 60 41 48 34 16 348 285 268 255 93 50 15 4 13 16 10 14 17 23 23 25 36 50 75 102 128 153 159 171 190 211 222 224 232 242 251
63 67 63 52 57 47 43 45 31 314 243 113 63 19 13 13 16 19 18 20 26 33 37 46 54 67 91 117 143 169 193 209 215 222 234 244 251 254
72 72 67 63 62 51 49 53 48 16 291 161 91 35 24 12 12 21 22 25 28 33 35 41 45 46 65 98 137 169 192 207 220 233 245 249 252 256
71 70 67 69 66 58 53 54 49 45 37 116 101 56 33 13 8 19 25 25 29 27 30 34 35 35 36 42 75 225 237 241 244 249 253 254 257 260
71 68 64 65 67 65 57 51 48 63 74 94 101 81 46 18 2 1 359 9 12 12 16 18 22 18 15 7 351 316 287 273 266 262 259 258 260 262
78 69 62 63 63 58 52 45 40 47 64 80 89 89 47 14 9 354 331 328 4 7 337 339 333 320 315 305 300 297 285 275 270 268 267 264 263 262
89 79 73 64 63 63 58 51 41 38 42 50 92 86 51 16 358 341 332 326 317 20 329 315 313 306 312 308 320 298 283 276 272 269 268 268 266 264
88 84 74 67 60 65 66 64 60 54 41 4 34 36 22 5 342 324 335 320 313 342 322 300 316 306 320 309 313 300 289 280 275 271 268 266 265 265
83 77 80 81 67 49 56 59 59 57 42 27 35 29 0 340 310 299 306 297 286 279 301 292 319 315 315 300 323 308 297 290 283 278 274 271 270 269
101 79 44 70 91 72 45 43 55 84 69 40 22 17 5 344 318 290 295 299 295 307 1 296 317 318 305 291 259 275 292 297 296 287 280 277 276 276
176 185 254 314 49 229 285 280 286 316 300 265 251 223 263 4 318 296 290 284 292 301 54 303 312 330 312 296 282 270 269 271 278 281 281 278 277 273
220 225 213 275 289 274 277 286 297 293 284 286 282 274 262 261 272 298 294 265 270 269 328 324 296 299 286 297 298 286 283 286 283 276 270 269 269 265
237 238 232 256 275 282 273 277 259 261 276 275 273 272 277 283 292 293 286 275 260 265 283 283 265 270 280 286 281 287 287 282 280 280 279 274 266 259
241 245 251 257 260 261 262 262 250 256 266 267 269 273 279 286 280 267 253 249 252 250 248 237 240 251 251 260 276 286 296 289 279 271 269 267 268 263
234 231 240 249 253 264 258 244 247 258 267 270 274 275 271 257 257 266 276 281 278 259 218 223 233 238 247 253 262 271 272 274 272 267 273 274 268 259
217 225 231 234 238 237 237 241 242 242 247 255 261 263 262 262 262 265 268 270 264 273 269 235 226 233 246 256 261 259 261 261 261 267 269 270 265 258
220 233 237 238 242 245 244 241 237 240 244 247 251 256 261 263 266 260 255 259 266 270 270 269 265 269 259 245 230 251 260 263 266 263 261 268 272 266
230 236 240 242 242 242 242 243 244 242 239 242 247 250 252 255 258 259 257 258 262 266 267 263 254 252 268 279 249 217 243 263 270 268 264 263 269 273
231 237 239 240 240 240 238 238 241 239 233 237 241 243 244 248 251 253 254 255 263 268 269 259 248 243 250 274 283 266 242 256 265 269 271 270 271 274
228 233 236 238 238 237 237 236 237 240 240 239 242 242 239 241 247 251 254 258 258 261 264 263 258 255 259 266 266 262 257 244 244 255 268 274 277 276
230 232 232 232 232 233 233 232 234 236 236 235 239 239 237 237 244 249 252 256 257 259 266 270 267 257 247 250 262 274 279 274 260 255 252 248 253 260
229 230 230 228 227 227 228 231 233 237 237 237 238 239 238 239 243 247 251 253 258 262 266 270 267 256 252 255 263 271 276 279 276 272 261 251 248 251